Terug naar catalogus

STARLINK-37328

ActiefCommunicatieVLEO
NORAD 69160·PAYLOAD·🇺🇸 United States

Gelanceerd May 21, 2026 vanaf Cape Canaveral Space Force Station

Loading…

Volgende Passages (komende 24 uur)

TLE

VersSource: CelesTrak SupGP

Epoch: Sep 15, 2026, 03:43 UTC

1 69160C 26111N   26258.15534722 -.00020864  00000+0 -61615-3 0  2586
2 69160  53.1577  90.7677 0001224  80.4018  49.5500 15.34415282    17

Volg STARLINK-37328 in realtime met AllMySat

Download on the App Store